Regional Weather Roundup
Issued by NWS

Home | Current Version | Previous Version | Graphics & Text | Print | Product List | Glossary On
Versions: 1 2 3 4 5 6 7 8 9 10 11 12 13 14 15 16 17 18 19 20 21 22 23 24 25 26 27 28 29 30 31 32 33 34 35 36 37 38 39 40 41 42 43 44 45 46 47 48 49 50
000
ASUS43 KLMK 271510
RWRKY
KENTUCKY REGIONAL WEATHER ROUNDUP
NATIONAL WEATHER SERVICE LOUISVILLE KY
1100 AM EDT FRI MAR 27 2015

NOTE "FAIR" INDICATES FEW OR NO CLOUDS BELOW 12,000 FEET
WITH NO SIGNIFICANT WEATHER AND/OR OBSTRUCTIONS TO VISIBILITY.

KYZ001>023-026-027-061>063-070>075-271600-
WESTERN AND SOUTH CENTRAL KENTUCKY

CITY           SKY/WX    TMP DP  RH WIND       PRES   REMARKS
PADUCAH        CLOUDY    41  30  65 N15       30.08R
HENDERSON      MOSUNNY   41  30  65 N9        30.06S
OWENSBORO      PTSUNNY   40  32  73 N9        30.06R WCI  34
HOPKINSVILLE   CLOUDY    41  36  83 N7        30.04R
BOWLING GREEN  CLOUDY    41  31  67 N7        30.03R
GLASGOW        PTSUNNY   42  31  65 N6        30.01R
$$

KYZ024-025-028>034-038-045-046-053-271600-
NORTH CENTRAL KENTUCKY

CITY           SKY/WX    TMP DP  RH WIND       PRES   REMARKS
LOUISVILLE/SDF PTSUNNY   41  29  62 N12       30.03R
LOUISVILLE/LOU MOSUNNY   40  28  62 N10       30.03R WCI  33
FORT KNOX      PTSUNNY   38  29  69 N8        30.00R WCI  32
$$

KYZ035>037-039>044-047>052-055>060-089>105-271600-
NORTHEAST KENTUCKY

CITY           SKY/WX    TMP DP  RH WIND       PRES   REMARKS
LEXINGTON      MOSUNNY   39  28  64 N12       29.99R WCI  32
COVINGTON      PTSUNNY   37  24  59 N9        30.00R WCI  30
FRANKFORT      PTSUNNY   39  25  57 NE9       29.99R WCI  33
$$

KYZ054-064>069-076>088-106>120-271600-
SOUTHEAST KENTUCKY

CITY           SKY/WX    TMP DP  RH WIND       PRES   REMARKS
JACKSON        PTSUNNY   42  32  67 VRB3      29.94S
LONDON         CLOUDY    41  28  60 N10       29.95R
SOMERSET       PTSUNNY   41  32  70 NE7       29.98S
MIDDLESBORO    CLOUDY    41  33  73 N8        29.94R
MONTICELLO     NOT AVBL
$$



USA.gov is the U.S. government's official web portal to all federal, state and local government web resources and services.